Liberal, KS

3:05 AM CDT on April 26, 2017 (GMT -0500)
Liberal Municipal

Weather History for KLBL - November, 2012

Change the Weather History Date:

Wednesday, November 14, 2012

  Actual Average Record
Temperature  
Mean Temperature 43 °F -  
Max Temperature 62 °F 60 °F 77 °F (1984)
Min Temperature 24 °F 31 °F 4 °F (1940)
Degree Days  
Heating Degree Days 22    
Moisture  
Dew Point 14 °F    
Average Humidity 33    
Maximum Humidity 51    
Minimum Humidity 18    
Precipitation  
Precipitation 0.00 in - - ()
Sea Level Pressure  
Sea Level Pressure 30.22 in    
Wind  
Wind Speed 10 mph (SW)    
Max Wind Speed 14 mph    
Max Gust Speed 16 mph    
Visibility 10 miles    
Events      
Averages and records for this station are not official NWS values.
T = Trace of Precipitation, MM = Missing Value Source: NWS Daily Summary

Daily Weather History Graph

Daily Weather History Graph

Search for Another Location

Airport or City:

Trip Planner

Search our weather history database for the weather conditions in past years. The results will help you decide how hot, cold, wet, or windy it might be!

Date:

Astronomy

Nov. 14, 2012 Rise Set
Actual Time 7:21 AM CST 5:34 PM CST
Civil Twilight 6:54 AM CST 6:02 PM CST
Nautical Twilight 6:22 AM CST 6:33 PM CST
Astronomical Twilight 5:52 AM CST 7:04 PM CST
Moon 8:12 AM CST (11/14) 6:26 PM CST (11/14)
Length of Visible Light 11h 07m
Length of Day
10h 12m
New Moon, 1% of the Moon is Illuminated
Nov 14
New Moon
Nov 20
First Quarter
Nov 28
Full
Dec 6
Last Quarter
Dec 13
New

Hourly Weather History & Observations

Time (CST) Temp. Windchill Dew Point Humidity Pressure Visibility Wind Dir Wind Speed Gust Speed Precip Events Conditions
12:15 AM 30.2 °F 20.8 °F 8.6 °F 40% 30.25 in 10.0 mi West 11.5 mph - N/A   Clear
12:35 AM 30.2 °F 20.8 °F 8.6 °F 40% 30.25 in 10.0 mi WNW 11.5 mph - N/A   Clear
12:55 AM 30.2 °F 21.3 °F 8.6 °F 40% 30.25 in 10.0 mi NW 10.4 mph - N/A   Clear
1:15 AM 33.8 °F 24.8 °F 10.4 °F 38% 30.25 in 10.0 mi NW 12.7 mph - N/A   Clear
1:35 AM 33.8 °F 24.8 °F 8.6 °F 35% 30.25 in 10.0 mi NW 12.7 mph - N/A   Clear
1:55 AM 33.8 °F 24.3 °F 10.4 °F 38% 30.25 in 10.0 mi NW 13.8 mph - N/A   Clear
2:15 AM 33.8 °F 24.3 °F 8.6 °F 35% 30.25 in 10.0 mi NW 13.8 mph - N/A   Clear
2:35 AM 33.8 °F 25.3 °F 8.6 °F 35% 30.26 in 10.0 mi NW 11.5 mph - N/A   Clear
2:55 AM 33.8 °F 24.8 °F 8.6 °F 35% 30.27 in 10.0 mi WNW 12.7 mph - N/A   Clear
3:15 AM 32.0 °F 23.0 °F 6.8 °F 35% 30.27 in 10.0 mi WNW 11.5 mph - N/A   Clear
3:35 AM 30.2 °F 19.8 °F 8.6 °F 40% 30.27 in 10.0 mi WNW 13.8 mph - N/A   Clear
3:55 AM 32.0 °F 22.5 °F 8.6 °F 38% 30.27 in 10.0 mi WNW 12.7 mph - N/A   Clear
4:15 AM 33.8 °F 24.3 °F 8.6 °F 35% 30.27 in 10.0 mi NW 13.8 mph - N/A   Clear
4:35 AM 33.8 °F 24.8 °F 8.6 °F 35% 30.27 in 10.0 mi NW 12.7 mph - N/A   Clear
4:55 AM 32.0 °F 23.6 °F 8.6 °F 38% 30.27 in 10.0 mi NW 10.4 mph - N/A   Clear
5:15 AM 28.4 °F 23.3 °F 6.8 °F 40% 30.28 in 10.0 mi West 4.6 mph - N/A   Clear
5:35 AM 26.6 °F 18.2 °F 5.0 °F 40% 30.28 in 10.0 mi West 8.1 mph - N/A   Clear
5:55 AM 26.6 °F 19.1 °F 6.8 °F 43% 30.28 in 10.0 mi West 6.9 mph - N/A   Clear
6:15 AM 26.6 °F 16.8 °F 6.8 °F 43% 30.28 in 10.0 mi WNW 10.4 mph - N/A   Clear
6:35 AM 26.6 °F 18.2 °F 6.8 °F 43% 30.28 in 10.0 mi WNW 8.1 mph - N/A   Clear
6:55 AM 24.8 °F 16.1 °F 6.8 °F 46% 30.28 in 10.0 mi WNW 8.1 mph - N/A   Clear
7:15 AM 24.8 °F 15.3 °F 6.8 °F 46% 30.29 in 10.0 mi WNW 9.2 mph - N/A   Clear
7:35 AM 24.8 °F 16.9 °F 8.6 °F 50% 30.29 in 10.0 mi WNW 6.9 mph - N/A   Clear
7:55 AM 26.6 °F 18.2 °F 10.4 °F 51% 30.29 in 10.0 mi NW 8.1 mph - N/A   Clear
8:15 AM 30.2 °F 21.3 °F 14.0 °F 51% 30.31 in 10.0 mi NW 10.4 mph - N/A   Clear
8:35 AM 35.6 °F 28.6 °F 17.6 °F 48% 30.31 in 10.0 mi NW 9.2 mph - N/A   Clear
8:55 AM 37.4 °F 30.3 °F 17.6 °F 45% 30.31 in 10.0 mi NNW 10.4 mph 16.1 mph N/A   Clear
9:15 AM 41.0 °F 35.2 °F 17.6 °F 39% 30.31 in 10.0 mi NW 9.2 mph - N/A   Clear
9:35 AM 42.8 °F 38.6 °F 19.4 °F 39% 30.32 in 10.0 mi NW 6.9 mph - N/A   Clear
9:55 AM 46.4 °F 42.4 °F 19.4 °F 34% 30.32 in 10.0 mi NNW 8.1 mph - N/A   Clear
10:15 AM 48.2 °F - 19.4 °F 32% 30.32 in 10.0 mi NNW 8.1 mph - N/A   Clear
10:35 AM 50.0 °F - 21.2 °F 32% 30.32 in 10.0 mi North 6.9 mph - N/A   Clear
10:55 AM 51.8 °F - 21.2 °F 30% 30.32 in 10.0 mi NNW 5.8 mph - N/A   Clear
11:15 AM 53.6 °F - 19.4 °F 26% 30.31 in 10.0 mi NNE 3.5 mph - N/A   Clear
11:35 AM 53.6 °F - 19.4 °F 26% 30.30 in 10.0 mi ENE 4.6 mph - N/A   Clear
11:55 AM 55.4 °F - 17.6 °F 23% 30.29 in 10.0 mi ENE 4.6 mph - N/A   Clear
12:15 PM 55.4 °F - 17.6 °F 23% 30.28 in 10.0 mi Calm Calm - N/A   Clear
12:35 PM 57.2 °F - 17.6 °F 21% 30.26 in 10.0 mi Calm Calm - N/A   Clear
12:55 PM 57.2 °F - 17.6 °F 21% 30.25 in 10.0 mi Calm Calm - N/A   Clear
1:15 PM 59.0 °F - 17.6 °F 20% 30.23 in 10.0 mi SE 6.9 mph - N/A   Clear
1:35 PM 59.0 °F - 17.6 °F 20% 30.22 in 10.0 mi South 6.9 mph - N/A   Clear
1:55 PM 60.8 °F - 17.6 °F 19% 30.21 in 10.0 mi South 8.1 mph - N/A   Clear
2:15 PM 60.8 °F - 17.6 °F 19% 30.20 in 10.0 mi SE 6.9 mph - N/A   Clear
2:35 PM 62.6 °F - 19.4 °F 19% 30.18 in 10.0 mi SE 9.2 mph - N/A   Clear
2:55 PM 62.6 °F - 19.4 °F 19% 30.17 in 10.0 mi SE 12.7 mph - N/A   Clear
3:15 PM 62.6 °F - 19.4 °F 19% 30.17 in 10.0 mi SSE 12.7 mph - N/A   Clear
3:35 PM 62.6 °F - 19.4 °F 19% 30.16 in 10.0 mi SSE 11.5 mph - N/A   Clear
3:55 PM 62.6 °F - 17.6 °F 18% 30.16 in 10.0 mi South 13.8 mph - N/A   Clear
4:15 PM 60.8 °F - 17.6 °F 19% 30.16 in 10.0 mi South 12.7 mph - N/A   Clear
4:35 PM 60.8 °F - 17.6 °F 19% 30.16 in 10.0 mi South 10.4 mph - N/A   Clear
4:55 PM 57.2 °F - 17.6 °F 21% 30.16 in 10.0 mi SSE 5.8 mph - N/A   Clear
5:15 PM 57.2 °F - 17.6 °F 21% 30.15 in 10.0 mi SSE 6.9 mph - N/A   Clear
5:35 PM 53.6 °F - 15.8 °F 22% 30.14 in 10.0 mi SSE 9.2 mph - N/A   Clear
5:55 PM 51.8 °F - 15.8 °F 24% 30.14 in 10.0 mi SE 9.2 mph - N/A   Clear
6:15 PM 48.2 °F - 15.8 °F 27% 30.14 in 10.0 mi SE 10.4 mph - N/A   Clear
6:35 PM 46.4 °F 40.7 °F 15.8 °F 29% 30.14 in 10.0 mi SE 12.7 mph - N/A   Clear
6:55 PM 46.4 °F 40.7 °F 15.8 °F 29% 30.14 in 10.0 mi SE 12.7 mph - N/A   Clear
7:15 PM 46.4 °F 41.1 °F 15.8 °F 29% 30.14 in 10.0 mi SSE 11.5 mph - N/A   Clear
7:35 PM 46.4 °F 41.1 °F 15.8 °F 29% 30.14 in 10.0 mi SSE 11.5 mph - N/A   Clear
7:55 PM 46.4 °F 40.4 °F 15.8 °F 29% 30.14 in 10.0 mi SE 13.8 mph - N/A   Clear
8:15 PM 46.4 °F 41.1 °F 15.8 °F 29% 30.14 in 10.0 mi SSE 11.5 mph - N/A   Clear
8:35 PM 42.8 °F 36.6 °F 14.0 °F 31% 30.13 in 10.0 mi SE 11.5 mph - N/A   Clear
8:55 PM 41.0 °F 34.3 °F 15.8 °F 36% 30.13 in 10.0 mi SE 11.5 mph - N/A   Clear
9:15 PM 41.0 °F 34.7 °F 15.8 °F 36% 30.13 in 10.0 mi SE 10.4 mph - N/A   Clear
9:35 PM 41.0 °F 34.7 °F 15.8 °F 36% 30.13 in 10.0 mi SE 10.4 mph - N/A   Clear
9:55 PM 39.2 °F 32.5 °F 15.8 °F 39% 30.13 in 10.0 mi SSE 10.4 mph - N/A   Clear
10:15 PM 41.0 °F 35.2 °F 17.6 °F 39% 30.13 in 10.0 mi SSE 9.2 mph - N/A   Clear
10:35 PM 37.4 °F 30.8 °F 15.8 °F 41% 30.12 in 10.0 mi South 9.2 mph - N/A   Clear
10:55 PM 35.6 °F 28.6 °F 14.0 °F 41% 30.12 in 10.0 mi South 9.2 mph - N/A   Clear
11:15 PM 35.6 °F 28.0 °F 15.8 °F 44% 30.12 in 10.0 mi South 10.4 mph - N/A   Clear
11:35 PM 37.4 °F 28.9 °F 17.6 °F 45% 30.11 in 10.0 mi South 13.8 mph - N/A   Clear
11:55 PM 37.4 °F 28.9 °F 17.6 °F 45% 30.11 in 10.0 mi South 13.8 mph - N/A   Clear